STARLINK-1575, 46349

Orbit data source: Space-Track

STARLINK-1575, 46349 is a payload satellite owned by SpaceX/Seattle (US) in LEO that was launched on Thu, 03 Sep 2020 UTC via an FALCON 9 launch vehicle from the Air Force Eastern Test Range (AFETR). Payload-class satellites include a variety of spacecraft equipped with specific instruments for various scientific and technological missions. These include communications satellites like Starlink; space stations such as the ISS; scientific satellites like the Hubble; Earth observation satellites from companies like Planet Labs, Umbra, and HawkEye 360; GPS; miniature CubeSats for education and research; and military/defense satellites.

Loading next visibility...
Identifier
46349, 2020-062AA
Orbit
LEO
Last TLE update
9 hours ago
Origin
Manufacturer
SpaceX/Seattle
Mission
Operational Commercial Communications
Bus & Motor
STARLINK, Unknown motor
Mass
260 kg wet, ~248 kg dry
Launch date (UTC)
2020-09-03 (5 years ago)
Launch vehicle
FALCON 9
Launch site
Air Force Eastern Test Range (AFETR)
Object type
Payload
Rocket body
Debris
Shape & HBR
Box + 1 Pan, 8.86 m
Radar Cross Section
13.562 m², Large (>1 m²)

Expand to show TLE details & history

TLE from 9 hours ago
0 STARLINK-1575
1 46349U 20062AA  25187.58335648 -.00008058  00000-0 -31969-3 0  9995
2 46349  53.0541 355.8731 0001008 105.5980 203.3385 15.23516646  5700
Epoch: 2025-07-06T14:00Z
TLE epoch observation values (Epoch: 2025-07-06T14:00:01.999Z)
Latitude
-38.64501°
Longitude
-175.66916°
Altitude
508.481 km
Speed
7.609 km/s
True Right ascension
21h 16m 34s
True Declination
-38° 28' 17"
Sunlit
Object was in full shadow at epoch
Visualization orbit readout
Latitude
-16.35771°
Longitude
52.01759°
Altitude
499.719 km
Speed
7.615 km/s
Apparent Right ascension
15h 14m 44s
Apparent Declination
-65° 11' 04"
Sunlit
Object is in daylight
Visualization observer readout
Local Sidereal Time
10:58:34
Azimuth
155.129° SSE
Elevation
-26.201°
Doppler factor
1
Orbital elements
Apogee altitude
496.209 km
Perigee altitude
494.823 km
Semi-major axis
6,873.653 km
Eccentricity
0.0001
Inclination
53.0541°
RAAN
355.8731°
Arg. of periapsis
105.598°
True anomaly
Unknown
Mean anomaly
203.3385°
Eccentric anomaly
Unknown
Mean motion
3.80857 °/min
Orbital period
94.52 mins
BSTAR
-0.00031969
Loading maneuver chart data...
Loading SW <> Apogee altitude chart data...
Loading historical data...
Loading historical data...
Loading historical data...
Loading historical data...
Loading historical data...
Loading historical data...
Loading historical data...

STARLINK-1575 Visibility forecast

Observer location: undefined°, undefined°

Span
Click to sort rows by Start time (UTC) header in descending order
Start Az.
Max El. time (UTC)
Max El. Az.
Max El.
End time (UTC)
End Az.
6 mins2025-07-07 14:02:20.784Z235.805° WSW2025-07-07 14:04:20.784Z264.287° W43.275°2025-07-07 14:08:20.784Z48.044° ENE
4 mins2025-07-07 19:01:20.784Z353.271° N2025-07-07 19:02:20.784Z12.996° NNE18.126°2025-07-07 19:05:20.784Z67.685° E
5 mins2025-07-07 20:39:20.784Z309.345° NW2025-07-07 20:41:20.784Z301.922° NW44.519°2025-07-07 20:44:20.784Z131.578° SE
|